Retour au catalogue

CHIRKIN V.N.

ActifNavigationSSO
NORAD 57192·PAYLOAD·🇷🇺 Russia
Ce nom de satellite n'a pas encore été confirmé par des sources officielles.

Lancé Jun 27, 2023 depuis Vostochny Cosmodrome

Loading…

Prochains Passages (prochaines 24 heures)

TLE

FraisSource: Space-Track

Époque: Sep 14, 2026, 10:47 UTC

1 57192U 23091AC  26257.44977530  .00007789  00000-0  29272-3 0  9996
2 57192  97.4975 320.8957 0012085 145.9992 214.2024 15.27383943177900

Suivez CHIRKIN V.N. en temps réel avec AllMySat

Download on the App Store